User: anonymous   Login
Location: Nachod
(50.4170°N, 16.1670°E)
Time: 01:31:00
(UTC+01:00)
Language:

BEESAT - Orbit

View from above orbital plane
View from above orbital plane
View from above satellite
View from above satellite

Ground track
Ground track

The orbit data is extracted from the following two-line orbital elements,

1 35933U 09051C   21057.51692677  .00000161  00000-0  47159-4 0  9994
2 35933  98.6051 255.8500 0006881  83.0837 277.1142 14.56556023606880
Epoch (UTC): 26 February 2021 12:24:22
Eccentricity: 0.0006881
inclination: 98.6051°
perigee height: 699 km
apogee height: 709 km
right ascension of ascending node: 255.8500°
argument of perigee: 83.0837°
revolutions per day: 14.56556023
mean anomaly at epoch: 277.1142°
orbit number at epoch: 60688

The dashed part of the orbit path shows where the satellite is in the earth's shadow,  

DLR